STARLINK-37263, 68544

Orbit data source: Space-Track

STARLINK-37263, 68544 is a payload satellite owned by SpaceX/Seattle (US) in LEO that was launched on Thu, 02 Apr 2026 UTC via an FALCON 9 launch vehicle from the Air Force Eastern Test Range (AFETR). Payload-class satellites include a variety of spacecraft equipped with specific instruments for various scientific and technological missions. These include communications satellites like Starlink; space stations such as the ISS; scientific satellites like the Hubble; Earth observation satellites from companies like Planet Labs, Umbra, and HawkEye 360; GPS; miniature CubeSats for education and research; and military/defense satellites.

Loading next visibility...
Identifier
68544, 2026-070C
Orbit
LEO
Country
Flag of USUS
Related business
Manufacturer
SpaceX/Seattle
Mission
Operational Commercial Communications
Bus & Motor
STARLINK V2MO, Unknown motor
Mass
575 kg wet, ~530 kg dry
Launch date (UTC)
2026-04-02 (5 months ago)
Launch vehicle
FALCON 9
Launch site
Air Force Eastern Test Range (AFETR)
Object type
Payload
Rocket body
Debris
Shape & HBR
Box + 1 Pan, 17.7 m
Radar Cross Section
41.120 m², Large (>1 m²)

Expand to show TLE details & history
Last TLE update: 1 day ago

TLE from 1 day ago
0 STARLINK-37263
1 68544U 26070C   26246.42974125  .00020576  00000-0  61834-3 0  9991
2 68544  53.1589 253.7388 0001626  69.5819 290.5358 15.34404996 23810
Epoch: 2026-09-03T10:18Z
TLE epoch observation values (Epoch: 2026-09-03T10:18:49.643Z)
Latitude
-0.00006°
Longitude
116.46387°
Altitude
463.2 km
Speed
7.636 km/s
True Right ascension
16h 54m 57s
True Declination
0° 00' 00"
Sunlit
Object was in daylight at epoch
Visualization orbit readout
Latitude
Unknown
Longitude
Unknown
Altitude
Unknown
Speed
Unknown
Apparent Right ascension
Unknown
Apparent Declination
Unknown
Sunlit
N/A
Visualization observer readout
Local Sidereal Time
02:17:00
Azimuth
Unknown
Elevation
Unknown
Doppler factor
Unknown
Orbital elements
Apogee altitude
464.058 km
Perigee altitude
461.833 km
Semi-major axis
6,841.082 km
Eccentricity
0.00016
Inclination
53.1589°
RAAN
253.7388°
Arg. of periapsis
69.5819°
True anomaly
290.51835°
Mean anomaly
290.5358°
Eccentric anomaly
290.52708°
Mean motion
3.8358 °/min
Orbital period
93.85 mins
BSTAR
0.00061834
Loading maneuver chart data...
Computing Atmospheric mass density...
Loading historical data...
Loading historical data...
Loading historical data...
Loading historical data...
Loading historical data...
Loading historical data...
Loading historical data...

Documentation

Showing up to 5 results
|